User: anonymous   Login
Location: Oshawa
(43.9000°N, 78.8670°W)
Time: 12:24:43
(UTC-04:00)
Language:

Iridium 54 - Orbit

View from above orbital plane
View from above orbital plane
View from above satellite
View from above satellite

Ground track
Ground track

The orbit data is extracted from the following two-line orbital elements,

1 25171U 98010C   16210.36187688  .00000168  00000-0  53009-4 0  9997
2 25171  86.3993 125.7928 0002308  85.4405 274.7054 14.34215131965519
Epoch (UTC): 28 July 2016 08:41:06
Eccentricity: 0.0002308
inclination: 86.3993°
perigee height: 776 km
apogee height: 779 km
right ascension of ascending node: 125.7928°
argument of perigee: 85.4405°
revolutions per day: 14.34215131
mean anomaly at epoch: 274.7054°
orbit number at epoch: 96551

The dashed part of the orbit path shows where the satellite is in the earth's shadow,  

DLR